Location: Fort Wayne
(41.1310°N, 85.1290°W)
Time: 22:34:51
(UTC-05:00)

Tiros 1 despin weight - Visible Passes

Search period start: 28 November 2014 00:00
Search period end: 08 December 2014 00:00
Orbit: 600 x 651 km, 48.2° (Epoch: 28 November)

Date Brightness Start Highest point End Pass type
(mag) Time Alt. Az. Time Alt. Az. Time Alt. Az.
28 Nov ? 18:17:18 10° SW 18:21:38 45° SE 18:24:31 20° ENE visible
28 Nov ? 19:58:53 10° W 20:01:44 34° WNW 20:01:44 34° WNW visible
29 Nov ? 18:35:53 10° WSW 18:40:26 83° SSE 18:42:43 30° ENE visible
29 Nov ? 20:18:11 10° W 20:19:56 21° WNW 20:19:56 21° WNW visible
30 Nov ? 18:54:52 10° WSW 18:59:23 61° NNW 19:00:52 39° NE visible
30 Nov ? 20:37:29 10° WNW 20:38:04 13° WNW 20:38:04 13° WNW visible
01 Dec ? 19:14:05 10° W 19:18:27 43° NNW 19:18:58 41° N visible
02 Dec ? 17:50:52 10° WSW 17:55:24 74° NNW 17:59:50 11° ENE visible
02 Dec ? 19:33:23 10° WNW 19:37:02 34° NNW 19:37:02 34° NNW visible
03 Dec ? 18:09:59 10° W 18:14:24 49° NNW 18:17:52 16° NE visible
03 Dec ? 19:52:36 10° WNW 19:55:04 25° NW 19:55:04 25° NW visible
04 Dec ? 18:29:15 10° W 18:33:30 38° N 18:35:54 22° NE visible
04 Dec ? 20:11:41 10° WNW 20:13:06 18° NW 20:13:06 18° NW visible
05 Dec ? 18:48:29 10° WNW 18:52:39 34° N 18:53:55 29° NNE visible
05 Dec ? 20:30:36 10° WNW 20:31:07 13° NW 20:31:07 13° NW visible
06 Dec ? 19:07:37 10° WNW 19:11:49 35° N 19:11:58 35° N visible
07 Dec ? 17:44:19 10° WNW 17:48:29 34° N 17:52:42 10° ENE visible
07 Dec ? 19:26:34 10° WNW 19:30:01 37° NNW 19:30:01 37° NNW visible
